User: anonymous   Login
Location: Unspecified
(0.0000°N, 0.0000°E)
Time: 21:40:09
(UTC+00:00)
Language:

WGS F1 (USA 195) - Orbit

View from above orbital plane
View from above orbital plane
View from above satellite
View from above satellite

Ground track
Ground track

The orbit is defined by the following mean orbital elements,

1 32258U          26140.51338247 +.00000000 +00000-0 +00000-0 0 00009
2 32258   0.0655  94.7130 0000330 227.3002  58.4846  1.00270210    02
Epoch (UTC): 20 May 2026 12:19:16
Eccentricity: 0.0000330
inclination: 0.0655°
perigee height: 35786 km
apogee height: 35788 km
right ascension of ascending node: 94.7130°
argument of perigee: 227.3002°
revolutions per day: 1.00270210
mean anomaly at epoch: 58.4846°

The dashed part of the orbit path shows where the satellite is in the earth's shadow,  

DLR